Location: Bad Dürkheim
(49.4618°N, 8.1724°E)
Time: 20:36:10
(UTC+00:00)

Cosmos 1151 Rocket - Pass Details

Date: 14 June 2025
Orbit: 586 x 606 km, 82.5° (Epoch: 16 July)

Event Time Altitude Azimuth Distance (km) Brightness Sun altitude
Rises 20:09:30 0° 200° (SSW) 2,813 6.2 -5.0°
Reaches altitude 10° 20:11:44 10° 205° (SSW) 1,920 5.4 -5.2°
Maximum altitude 20:15:53 54° 284° (WNW) 728 3.8 -5.7°
Drops below altitude 10° 20:20:07 10° 2° (N) 1,948 6.4 -6.1°
Sets 20:22:23 0° 7° (N) 2,859 7.1 -6.4°
